sat.trackr.live / text

‹ back to catalog

STARLINK-3166

NORAD 51462 · 2022-010G

PAYLOAD ACTIVE UNKNOWN

§ Identity

Operator
Country
US
Launch date
2022-02-03
Launch site
AFETR
Launch vehicle
Mass (kg)
RCS (m²)

Purposes: comms

External: N2YO · Heavens-Above · Gunter

§ Orbital elements

Epoch: 2026-05-25T03:24:25.916832Z

Period
95.44 min
Inclination
53.2138°
Eccentricity
0.0001523
Mean motion
15.08840612 rev/d
Perigee alt
538.7 km
Apogee alt
540.8 km
Semi-major
6,917.9 km
B*
2.0004e-5
RAAN
295.9222°
Arg perigee
90.6084°
Mean anomaly
269.5083°
Rev number
23,836

§ Raw data

STARLINK-31661 51462U 22010G   26145.14196663  .00000030  00000+0  20004-4 0  99992 51462  53.2138 295.9222 0001523  90.6084 269.5083 15.08840612238361

JSON: /api/v1/satellites/51462 · /tle

For live sub-satellite position, see the globe view (requires WebGL).

§ Visibility from observer

Set your observer location to see the next 7 days of passes ≥ 10°. The values pass through the URL so the page stays shareable.

No JS? Fill the form by hand. The geolocation button needs JavaScript.